Time,TemperatureF,DewpointF,PressureIn,WindDirection,WindDirectionDegrees,WindSpeedMPH,WindSpeedGustMPH,Humidity,HourlyPrecipIn,Conditions,Clouds,dailyrainin,SoftwareType,DateUTC
2013-04-26 00:01:00,56.3,39.0,30.10,SE,141,0.0,1.0,52,0.00,,,0.00,weatherlink.com 1.10,2013-04-26 05:01:00,
2013-04-26 00:16:00,55.9,39.0,30.10,SSE,165,0.0,1.0,53,0.00,,,0.00,weatherlink.com 1.10,2013-04-26 05:16:00,
2013-04-26 00:31:00,55.6,39.0,30.09,SE,139,0.0,1.0,54,0.00,,,0.00,weatherlink.com 1.10,2013-04-26 05:31:00,
2013-04-26 00:46:00,55.3,39.0,30.10,SSE,151,0.0,0.0,54,0.00,,,0.00,weatherlink.com 1.10,2013-04-26 05:46:00,
2013-04-26 01:01:00,55.0,38.0,30.11,SSE,150,0.0,0.0,54,0.00,,,0.00,weatherlink.com 1.10,2013-04-26 06:01:00,
2013-04-26 01:16:00,55.5,38.0,30.12,SSW,197,0.0,2.0,53,0.00,,,0.00,weatherlink.com 1.10,2013-04-26 06:16:00,
2013-04-26 01:31:00,56.5,38.0,30.13,South,180,1.0,1.0,51,0.00,,,0.00,weatherlink.com 1.10,2013-04-26 06:31:00,
2013-04-26 01:46:00,57.0,38.0,30.13,SE,126,0.0,4.0,49,0.00,,,0.00,weatherlink.com 1.10,2013-04-26 06:46:00,
2013-04-26 02:01:00,57.1,38.0,30.12,SSW,201,0.0,1.0,49,0.00,,,0.00,weatherlink.com 1.10,2013-04-26 07:01:00,
2013-04-26 02:16:00,56.8,38.0,30.11,SE,146,0.0,0.0,49,0.00,,,0.00,weatherlink.com 1.10,2013-04-26 07:16:00,
2013-04-26 02:31:00,57.0,38.0,30.10,SSE,166,1.0,5.0,49,0.00,,,0.00,weatherlink.com 1.10,2013-04-26 07:31:00,
2013-04-26 02:46:00,57.4,39.0,30.10,SSE,159,0.0,6.0,51,0.00,,,0.00,weatherlink.com 1.10,2013-04-26 07:46:00,
2013-04-26 03:01:00,57.0,38.0,30.12,ENE,71,0.0,6.0,50,0.00,,,0.00,weatherlink.com 1.10,2013-04-26 08:01:00,
2013-04-26 03:16:00,55.8,42.0,30.13,SSW,205,0.0,2.0,60,0.00,,,0.00,weatherlink.com 1.10,2013-04-26 08:16:00,
2013-04-26 03:31:00,54.6,43.0,30.13,SSW,203,0.0,5.0,64,0.01,,,0.01,weatherlink.com 1.10,2013-04-26 08:31:00,
2013-04-26 03:46:00,53.6,42.0,30.12,SSW,195,0.0,10.0,65,0.02,,,0.02,weatherlink.com 1.10,2013-04-26 08:46:00,
2013-04-26 04:01:00,53.9,42.0,30.12,SSW,211,2.0,5.0,65,0.02,,,0.02,weatherlink.com 1.10,2013-04-26 09:01:00,
2013-04-26 04:16:00,54.3,43.0,30.12,SSE,148,0.0,10.0,66,0.02,,,0.02,weatherlink.com 1.10,2013-04-26 09:16:00,
2013-04-26 04:32:00,53.7,44.0,30.13,SSE,159,0.0,8.0,71,0.03,,,0.04,weatherlink.com 1.10,2013-04-26 09:32:00,
2013-04-26 04:47:00,52.2,46.0,30.13,SSW,211,0.0,4.0,78,0.03,,,0.05,weatherlink.com 1.10,2013-04-26 09:47:00,
2013-04-26 05:02:00,51.2,46.0,30.12,SSW,211,0.0,3.0,82,0.05,,,0.07,weatherlink.com 1.10,2013-04-26 10:02:00,
2013-04-26 05:17:00,50.2,46.0,30.12,SSE,147,0.0,1.0,86,0.10,,,0.12,weatherlink.com 1.10,2013-04-26 10:17:00,
2013-04-26 05:32:00,49.7,46.0,30.12,East,97,0.0,1.0,88,0.09,,,0.13,weatherlink.com 1.10,2013-04-26 10:32:00,
2013-04-26 05:47:00,49.5,46.0,30.12,South,177,0.0,1.0,89,0.08,,,0.13,weatherlink.com 1.10,2013-04-26 10:47:00,
2013-04-26 06:02:00,49.5,46.0,30.12,SSE,155,0.0,1.0,88,0.06,,,0.13,weatherlink.com 1.10,2013-04-26 11:02:00,
2013-04-26 06:17:00,49.5,46.0,30.12,ESE,121,0.0,1.0,89,0.02,,,0.14,weatherlink.com 1.10,2013-04-26 11:17:00,
2013-04-26 06:32:00,49.5,46.0,30.12,SW,214,0.0,2.0,88,0.01,,,0.14,weatherlink.com 1.10,2013-04-26 11:32:00,
2013-04-26 06:46:00,49.5,46.0,30.12,SSE,159,0.0,1.0,89,0.02,,,0.15,weatherlink.com 1.10,2013-04-26 11:46:00,
2013-04-26 07:01:00,49.5,46.0,30.12,SSE,158,0.0,3.0,89,0.03,,,0.16,weatherlink.com 1.10,2013-04-26 12:01:00,
2013-04-26 07:16:00,49.7,46.0,30.13,SSW,208,0.0,8.0,88,0.02,,,0.16,weatherlink.com 1.10,2013-04-26 12:16:00,
2013-04-26 07:31:00,49.9,47.0,30.14,SSW,199,0.0,5.0,88,0.02,,,0.16,weatherlink.com 1.10,2013-04-26 12:31:00,
2013-04-26 07:46:00,50.2,47.0,30.14,East,96,0.0,2.0,87,0.01,,,0.16,weatherlink.com 1.10,2013-04-26 12:46:00,
2013-04-26 08:01:00,50.8,46.0,30.14,SE,125,1.0,6.0,84,0.00,,,0.16,weatherlink.com 1.10,2013-04-26 13:01:00,
2013-04-26 08:16:00,51.4,46.0,30.13,SSW,199,0.0,10.0,82,0.00,,,0.16,weatherlink.com 1.10,2013-04-26 13:16:00,
2013-04-26 08:31:00,51.8,47.0,30.13,SE,136,0.0,9.0,82,0.00,,,0.16,weatherlink.com 1.10,2013-04-26 13:31:00,
2013-04-26 08:46:00,52.3,47.0,30.12,SW,224,9.0,13.0,82,0.00,,,0.16,weatherlink.com 1.10,2013-04-26 13:46:00,
2013-04-26 09:01:00,52.4,47.0,30.13,SE,127,0.0,13.0,81,0.00,,,0.16,weatherlink.com 1.10,2013-04-26 14:01:00,
2013-04-26 09:16:00,52.1,46.0,30.14,SW,226,8.0,10.0,81,0.00,,,0.16,weatherlink.com 1.10,2013-04-26 14:16:00,
2013-04-26 09:31:00,52.0,47.0,30.14,SW,218,4.0,12.0,82,0.00,,,0.16,weatherlink.com 1.10,2013-04-26 14:31:00,
2013-04-26 09:47:00,51.8,47.0,30.16,SW,217,1.0,10.0,83,0.00,,,0.16,weatherlink.com 1.10,2013-04-26 14:47:00,
2013-04-26 10:02:00,51.6,47.0,30.16,SSE,158,0.0,9.0,84,0.00,,,0.16,weatherlink.com 1.10,2013-04-26 15:02:00,
2013-04-26 10:17:00,51.5,47.0,30.15,SSE,151,6.0,11.0,85,0.00,,,0.16,weatherlink.com 1.10,2013-04-26 15:17:00,
2013-04-26 10:32:00,51.7,47.0,30.14,ESE,121,0.0,5.0,84,0.00,,,0.16,weatherlink.com 1.10,2013-04-26 15:32:00,
2013-04-26 10:47:00,52.1,47.0,30.14,SW,221,1.0,9.0,83,0.00,,,0.16,weatherlink.com 1.10,2013-04-26 15:47:00,
2013-04-26 11:02:00,52.5,47.0,30.15,SW,218,0.0,7.0,81,0.00,,,0.16,weatherlink.com 1.10,2013-04-26 16:02:00,
2013-04-26 11:17:00,52.5,47.0,30.16,SE,127,0.0,7.0,82,0.00,,,0.16,weatherlink.com 1.10,2013-04-26 16:17:00,
2013-04-26 11:32:00,53.9,48.0,30.16,East,101,0.0,7.0,80,0.00,,,0.16,weatherlink.com 1.10,2013-04-26 16:32:00,
2013-04-26 11:47:00,53.7,47.0,30.13,SSE,148,1.0,8.0,78,0.00,,,0.16,weatherlink.com 1.10,2013-04-26 16:47:00,
2013-04-26 12:02:00,54.7,48.0,30.14,North,11,0.0,8.0,77,0.00,,,0.16,weatherlink.com 1.10,2013-04-26 17:02:00,
2013-04-26 12:17:00,55.5,46.0,30.16,SSE,150,0.0,10.0,71,0.00,,,0.16,weatherlink.com 1.10,2013-04-26 17:17:00,
2013-04-26 12:32:00,56.8,47.0,30.16,WSW,240,5.0,12.0,70,0.00,,,0.16,weatherlink.com 1.10,2013-04-26 17:32:00,
2013-04-26 12:47:00,56.0,47.0,30.16,SSW,205,2.0,11.0,72,0.00,,,0.16,weatherlink.com 1.10,2013-04-26 17:47:00,
2013-04-26 13:02:00,54.7,47.0,30.17,ENE,70,0.0,11.0,74,0.00,,,0.16,weatherlink.com 1.10,2013-04-26 18:02:00,
2013-04-26 13:17:00,53.9,46.0,30.17,ESE,121,0.0,6.0,75,0.00,,,0.16,weatherlink.com 1.10,2013-04-26 18:17:00,
2013-04-26 13:32:00,53.7,45.0,30.15,East,79,0.0,6.0,73,0.00,,,0.16,weatherlink.com 1.10,2013-04-26 18:32:00,
2013-04-26 13:47:00,52.7,46.0,30.15,ESE,115,0.0,4.0,78,0.01,,,0.17,weatherlink.com 1.10,2013-04-26 18:47:00,
2013-04-26 14:02:00,52.6,48.0,30.11,SE,143,0.0,5.0,83,0.02,,,0.18,weatherlink.com 1.10,2013-04-26 19:02:00,
2013-04-26 14:17:00,53.2,48.0,30.14,SE,134,0.0,6.0,81,0.02,,,0.18,weatherlink.com 1.10,2013-04-26 19:17:00,
2013-04-26 14:32:00,52.8,47.0,30.15,SE,143,0.0,8.0,80,0.02,,,0.18,weatherlink.com 1.10,2013-04-26 19:32:00,
2013-04-26 14:47:00,52.2,47.0,30.16,South,177,2.0,9.0,81,0.01,,,0.18,weatherlink.com 1.10,2013-04-26 19:47:00,
2013-04-26 15:02:00,51.7,46.0,30.16,ESE,116,0.0,9.0,82,0.00,,,0.18,weatherlink.com 1.10,2013-04-26 20:02:00,
2013-04-26 15:17:00,50.8,47.0,30.14,South,177,2.0,5.0,86,0.02,,,0.20,weatherlink.com 1.10,2013-04-26 20:17:00,
2013-04-26 15:32:00,50.5,47.0,30.15,East,79,0.0,3.0,89,0.04,,,0.22,weatherlink.com 1.10,2013-04-26 20:32:00,
2013-04-26 15:47:00,50.7,48.0,30.16,SSW,198,0.0,4.0,90,0.05,,,0.23,weatherlink.com 1.10,2013-04-26 20:47:00,
2013-04-26 16:02:00,50.6,48.0,30.15,SSE,148,0.0,4.0,91,0.06,,,0.24,weatherlink.com 1.10,2013-04-26 21:02:00,
2013-04-26 16:17:00,50.7,48.0,30.14,ENE,67,1.0,4.0,90,0.04,,,0.24,weatherlink.com 1.10,2013-04-26 21:17:00,
2013-04-26 16:32:00,50.5,48.0,30.13,SSE,155,0.0,1.0,91,0.02,,,0.24,weatherlink.com 1.10,2013-04-26 21:32:00,
2013-04-26 16:47:00,50.5,48.0,30.12,SSE,149,0.0,1.0,91,0.01,,,0.24,weatherlink.com 1.10,2013-04-26 21:47:00,
2013-04-26 17:02:00,50.4,48.0,30.13,ENE,71,0.0,3.0,91,0.01,,,0.25,weatherlink.com 1.10,2013-04-26 22:02:00,
2013-04-26 17:17:00,50.2,48.0,30.13,East,79,0.0,3.0,91,0.01,,,0.25,weatherlink.com 1.10,2013-04-26 22:17:00,
2013-04-26 17:32:00,49.9,47.0,30.12,East,82,0.0,2.0,91,0.02,,,0.26,weatherlink.com 1.10,2013-04-26 22:32:00,
2013-04-26 17:47:00,49.9,48.0,30.12,SE,135,0.0,1.0,92,0.02,,,0.27,weatherlink.com 1.10,2013-04-26 22:47:00,
2013-04-26 18:02:00,49.7,48.0,30.13,ESE,103,0.0,2.0,92,0.03,,,0.28,weatherlink.com 1.10,2013-04-26 23:02:00,
2013-04-26 18:17:00,49.6,48.0,30.13,ESE,121,0.0,1.0,93,0.04,,,0.29,weatherlink.com 1.10,2013-04-26 23:17:00,
2013-04-26 18:32:00,49.3,47.0,30.13,ENE,72,0.0,4.0,93,0.03,,,0.29,weatherlink.com 1.10,2013-04-26 23:32:00,
2013-04-26 18:47:00,49.3,47.0,30.12,SE,124,0.0,2.0,93,0.03,,,0.30,weatherlink.com 1.10,2013-04-26 23:47:00,
2013-04-26 19:17:00,49.1,47.0,30.12,SSE,162,0.0,1.0,93,0.02,,,0.31,weatherlink.com 1.10,2013-04-27 00:17:00,
2013-04-26 19:32:00,49.0,47.0,30.13,SE,141,0.0,2.0,93,0.02,,,0.31,weatherlink.com 1.10,2013-04-27 00:32:00,
2013-04-26 19:47:00,48.9,47.0,30.13,SSE,165,0.0,1.0,93,0.01,,,0.31,weatherlink.com 1.10,2013-04-27 00:47:00,
2013-04-26 20:02:00,48.8,47.0,30.14,SE,129,0.0,0.0,93,0.02,,,0.32,weatherlink.com 1.10,2013-04-27 01:02:00,
2013-04-26 20:17:00,48.7,47.0,30.14,ESE,116,0.0,0.0,94,0.03,,,0.34,weatherlink.com 1.10,2013-04-27 01:17:00,
2013-04-26 20:32:00,48.7,47.0,30.15,SE,139,0.0,0.0,94,0.05,,,0.36,weatherlink.com 1.10,2013-04-27 01:32:00,
2013-04-26 20:47:00,48.7,47.0,30.16,ESE,115,0.0,1.0,94,0.05,,,0.36,weatherlink.com 1.10,2013-04-27 01:47:00,
2013-04-26 21:02:00,48.6,47.0,30.16,East,82,0.0,0.0,94,0.04,,,0.36,weatherlink.com 1.10,2013-04-27 02:02:00,
2013-04-26 21:17:00,48.5,47.0,30.17,SSE,159,0.0,1.0,94,0.02,,,0.36,weatherlink.com 1.10,2013-04-27 02:17:00,
2013-04-26 21:32:00,48.4,47.0,30.16,SW,219,0.0,1.0,94,0.01,,,0.37,weatherlink.com 1.10,2013-04-27 02:32:00,
2013-04-26 21:47:00,48.4,47.0,30.16,ESE,121,0.0,0.0,94,0.03,,,0.39,weatherlink.com 1.10,2013-04-27 02:47:00,
2013-04-26 22:02:00,48.3,47.0,30.17,East,84,0.0,1.0,94,0.04,,,0.40,weatherlink.com 1.10,2013-04-27 03:02:00,
2013-04-26 22:17:00,48.2,47.0,30.17,ENE,74,0.0,1.0,94,0.04,,,0.40,weatherlink.com 1.10,2013-04-27 03:17:00,
2013-04-26 22:32:00,48.1,47.0,30.17,ESE,122,0.0,3.0,94,0.03,,,0.40,weatherlink.com 1.10,2013-04-27 03:32:00,
2013-04-26 22:47:00,48.1,47.0,30.17,East,86,0.0,2.0,94,0.01,,,0.40,weatherlink.com 1.10,2013-04-27 03:47:00,
2013-04-26 23:02:00,48.0,46.0,30.16,ENE,71,1.0,4.0,94,0.01,,,0.41,weatherlink.com 1.10,2013-04-27 04:02:00,
2013-04-26 23:17:00,47.9,47.0,30.16,ENE,76,0.0,1.0,95,0.01,,,0.41,weatherlink.com 1.10,2013-04-27 04:17:00,
2013-04-26 23:32:00,47.8,47.0,30.16,ESE,104,0.0,1.0,95,0.02,,,0.42,weatherlink.com 1.10,2013-04-27 04:32:00,
2013-04-26 23:47:00,47.7,46.0,30.16,East,96,0.0,1.0,95,0.03,,,0.43,weatherlink.com 1.10,2013-04-27 04:47:00,